Salisbury, MD

5:15 AM EST on February 25, 2018 (GMT -0500)
Salisbury-Ocean City Wicomico Regional

Weather History for KSBY - January, 2013

Change the Weather History Date:

Saturday, January 5, 2013

  Actual Average Record
Temperature  
Mean Temperature 39 °F 36 °F  
Max Temperature 47 °F 44 °F 71 °F (1950)
Min Temperature 31 °F 27 °F 9 °F (1920)
Degree Days  
Heating Degree Days 26 29  
Month to date heating degree days 138 145  
Since 1 July heating degree days 1437 1769  
Cooling Degree Days 0 0  
Month to date cooling degree days 0 0  
Year to date cooling degree days 0 0  
Moisture  
Dew Point 22 °F    
Average Humidity 58    
Maximum Humidity 78    
Minimum Humidity 37    
Precipitation  
Precipitation 0.00 in 0.12 in 1.58 in (1993)
Month to date precipitation T 0.54  
Year to date precipitation T 0.54  
Snow  
Snow 0.00 in 0.10 in 1.00 in (1980)
Month to date snowfall T 0.3  
Since 1 July snowfall T 2.1  
Snow Depth 0.00 in    
Sea Level Pressure  
Sea Level Pressure 30.29 in    
Wind  
Wind Speed 5 mph (WNW)    
Max Wind Speed 18 mph    
Max Gust Speed 26 mph    
Visibility 10 miles    
Events      
T = Trace of Precipitation, MM = Missing Value Source: NWS Daily Summary

Daily Weather History Graph

Daily Weather History Graph

Search for Another Location

Airport or City:

Trip Planner

Search our weather history database for the weather conditions in past years. The results will help you decide how hot, cold, wet, or windy it might be!

Date:

Astronomy

Jan. 05, 2013 Rise Set
Actual Time 7:19 AM EST 4:56 PM EST
Civil Twilight 6:49 AM EST 5:25 PM EST
Nautical Twilight 6:17 AM EST 5:58 PM EST
Astronomical Twilight 5:45 AM EST 6:30 PM EST
Moon 12:26 AM EST (1/5) 11:41 AM EST (1/5)
Length of Visible Light 10h 35m
Length of Day
9h 36m
Last Quarter, 44% of the Moon is Illuminated
Jan 5
Last Quarter
Jan 11
New
Jan 18
First Quarter
Jan 26
Full
Feb 3
Last Quarter

Hourly Weather History & Observations

Time (EST) Temp. Windchill Dew Point Humidity Pressure Visibility Wind Dir Wind Speed Gust Speed Precip Events Conditions
12:54 AM 37.0 °F 31.6 °F 19.0 °F 48% 30.17 in 10.0 mi West 6.9 mph - N/A   Clear
1:54 AM 36.0 °F 29.6 °F 19.0 °F 50% 30.18 in 10.0 mi West 8.1 mph - N/A   Clear
2:54 AM 33.1 °F 26.9 °F 19.0 °F 56% 30.20 in 10.0 mi WSW 6.9 mph - N/A   Clear
3:54 AM 34.0 °F 28.8 °F 21.0 °F 59% 30.22 in 10.0 mi West 5.8 mph - N/A   Clear
4:54 AM 34.0 °F 28.8 °F 21.9 °F 61% 30.24 in 10.0 mi West 5.8 mph - N/A   Clear
5:54 AM 35.1 °F 30.1 °F 21.0 °F 57% 30.27 in 10.0 mi West 5.8 mph - N/A   Clear
6:54 AM 35.1 °F 28.6 °F 21.0 °F 57% 30.30 in 10.0 mi NW 8.1 mph - N/A   Clear
7:54 AM 34.0 °F 29.8 °F 21.0 °F 59% 30.34 in 10.0 mi WNW 4.6 mph - N/A   Clear
8:54 AM 39.0 °F 31.8 °F 21.0 °F 49% 30.35 in 10.0 mi NW 11.5 mph - N/A   Clear
9:54 AM 41.0 °F 33.5 °F 21.0 °F 45% 30.38 in 10.0 mi NW 13.8 mph 20.7 mph N/A   Clear
10:54 AM 43.0 °F 36.0 °F 21.0 °F 42% 30.38 in 10.0 mi NNW 13.8 mph 26.5 mph N/A   Clear
11:54 AM 45.0 °F 40.6 °F 21.0 °F 39% 30.36 in 10.0 mi NNW 8.1 mph - N/A   Clear
12:54 PM 46.0 °F 42.5 °F 21.0 °F 37% 30.34 in 10.0 mi WNW 6.9 mph - N/A   Clear
1:54 PM 46.0 °F 44.8 °F 21.0 °F 37% 30.31 in 10.0 mi Variable 3.5 mph - N/A   Clear
2:54 PM 46.0 °F - 21.0 °F 37% 30.32 in 10.0 mi Calm Calm - N/A   Clear
3:54 PM 45.0 °F - 21.9 °F 40% 30.32 in 10.0 mi Calm Calm - N/A   Clear
4:54 PM 42.1 °F 40.2 °F 23.0 °F 47% 30.32 in 10.0 mi West 3.5 mph - N/A   Clear
5:54 PM 34.0 °F 31.0 °F 25.0 °F 70% 30.32 in 10.0 mi East 3.5 mph - N/A   Clear
6:54 PM 33.1 °F - 24.1 °F 70% 30.32 in 10.0 mi Calm Calm - N/A   Clear
7:54 PM 30.9 °F - 24.1 °F 76% 30.30 in 10.0 mi Calm Calm - N/A   Clear
8:54 PM 32.0 °F - 25.0 °F 75% 30.30 in 10.0 mi Calm Calm - N/A   Clear
9:54 PM 33.1 °F 30.0 °F 25.0 °F 72% 30.27 in 10.0 mi ESE 3.5 mph - N/A   Clear
10:54 PM 35.1 °F - 26.1 °F 70% 30.27 in 10.0 mi Calm Calm - N/A   Clear
11:54 PM 37.0 °F 34.5 °F 27.0 °F 67% 30.28 in 10.0 mi SSW 3.5 mph - N/A   Overcast